This is the latest recevied weather packets stored in our database for station/object NE1CU. If no packets are shown the sender has not sent any weather packets the latest 1 day(s).
| Time | Temp. | Humidity | Pressure | Rain* | Wind** | Luminosity | Snow |
|---|---|---|---|---|---|---|---|
| 1778018670 | 20.56° C | 54% | 1008.7 hPa | 0 mm | 1.34 m/s, 141° | 87 W/m² | - |
| 1778018368 | 20.56° C | 55% | 1008.6 hPa | 0 mm | 0.45 m/s, 297° | 99 W/m² | - |
| 1778018066 | 20.56° C | 55% | 1008.4 hPa | 0 mm | 1.34 m/s, 145° | 103 W/m² | - |
| 1778017763 | 20.56° C | 55% | 1008.5 hPa | 0 mm | 0.89 m/s, 176° | 106 W/m² | - |
| 1778017461 | 21.11° C | 54% | 1008.8 hPa | 0 mm | 2.68 m/s, 219° | 111 W/m² | - |
| 1778017158 | 21.11° C | 55% | 1008.6 hPa | 0 mm | 0.89 m/s, 142° | 180 W/m² | - |
| 1778016856 | 21.67° C | 53% | 1008.5 hPa | 0 mm | 1.34 m/s, 160° | 277 W/m² | - |
| 1778016552 | 21.67° C | 53% | 1008.4 hPa | 0 mm | 1.79 m/s, 227° | 252 W/m² | - |
| 1778016248 | 21.67° C | 52% | 1008.4 hPa | 0 mm | 0.89 m/s, 202° | 279 W/m² | - |
| 1778015945 | 21.67° C | 54% | 1008.6 hPa | 0 mm | 0.89 m/s, 66° | 322 W/m² | - |
| 1778015643 | 21.67° C | 53% | 1008.2 hPa | 0 mm | 0.89 m/s, 114° | 325 W/m² | - |
| 1778015338 | 21.67° C | 54% | 1008.4 hPa | 0 mm | 0.89 m/s, 154° | 387 W/m² | - |
| 1778015036 | 21.67° C | 54% | 1008.5 hPa | 0 mm | 0.89 m/s, 139° | 405 W/m² | - |
| 1778014732 | 21.67° C | 53% | 1008.6 hPa | 0 mm | 1.79 m/s, 131° | 325 W/m² | - |
| 1778014431 | 22.22° C | 52% | 1008.5 hPa | 0 mm | 1.34 m/s, 218° | 376 W/m² | - |
| 1778014127 | 22.22° C | 52% | 1008.4 hPa | 0 mm | 1.34 m/s, 202° | 336 W/m² | - |
| 1778013825 | 22.22° C | 53% | 1008.5 hPa | 0 mm | 1.34 m/s, 158° | 408 W/m² | - |
| 1778013522 | 22.78° C | 52% | 1008.3 hPa | 0 mm | 2.24 m/s, 240° | 411 W/m² | - |
| 1778013219 | 22.78° C | 50% | 1008.4 hPa | 0 mm | 1.79 m/s, 216° | 474 W/m² | - |
| 1778012915 | 22.78° C | 51% | 1008.5 hPa | 0 mm | 1.34 m/s, 207° | 444 W/m² | - |
| 1778012611 | 23.33° C | 50% | 1008.5 hPa | 0 mm | 0.89 m/s, 198° | 508 W/m² | - |
| 1778012308 | 22.78° C | 53% | 1008.6 hPa | 0 mm | 0.45 m/s, 100° | 517 W/m² | - |
| 1778012006 | 22.78° C | 50% | 1008.6 hPa | 0 mm | 1.34 m/s, 244° | 564 W/m² | - |
| 1778011704 | 22.78° C | 51% | 1008.7 hPa | 0 mm | 0.89 m/s, 42° | 564 W/m² | - |
| 1778011400 | 23.33° C | 51% | 1008.7 hPa | 0 mm | 1.79 m/s, 227° | 567 W/m² | - |
* Rain latest hour (hover to see other rain measurements)
** Current wind speed in m/s (hover to see current wind gust speed)